Terminal Aerodrome Forecast
Issued by NWS

Home | Current Version | Previous Version | Text Only | Print | Product List | Glossary On
Versions: 1 2 3 4 5 6 7 8 9 10 11 12 13 14 15 16 17
000
FTUS45 KTFX 190700 AAA
TAFLWT
TAF AMD
KLWT 190738Z 1908/2006 23009KT P6SM SCT100
     FM191700 22010KT P6SM SCT080 BKN130
     FM200400 22008KT P6SM VCSH SCT040 OVC060=

USA.gov is the U.S. government's official web portal to all federal, state and local government web resources and services.